Tracking 34138 objects as of 15-May-2026
HD Live streaming from Space Station
objects crossing your sky now

STARLINK-37020

Track STARLINK-37020 now!
10-day predictions
STARLINK-37020 is classified as:


NORAD ID: 68144
Int'l Code: 2026-049C
Perigee: 471.9 km
Apogee: 473.4 km
Inclination: 97.3 °
Period: 93.9 minutes
Semi major axis: 6843 km
RCS: Unknown
Launch date: March 13, 2026
Source: United States (US)
Launch site: AIR FORCE WESTERN TEST RANGE (AFWTR)
Your satellite tracking list
Your tracking list is empty




NASA's NSSDC Master Catalog

Two Line Element Set (TLE):
1 68144U 26049C   26135.01576585  .00018227  00000-0  56539-3 0  9999
2 68144  97.2825 156.8420 0001094  66.7726 293.3632 15.33453531  9811
Source of the keplerian elements: AFSPC